Terminal Aerodrome Forecast
Issued by NWS

Home | Current Version | Previous Version | Text Only | Print | Product List | Glossary On
Versions: 1 2 3 4 5 6 7 8 9 10 11 12 13 14 15 16 17 18 19 20 21 22 23 24 25 26
000
FTUS45 KGJT 302330
TAFVEL
TAF
KVEL 302330Z 3100/3124 33006KT P6SM VCSH BKN100
      TEMPO 3100/3101 VRB15G25KT P6SM -SHRA BKN070
     FM310200 02010KT P6SM VCSH SCT080 BKN120
     FM310600 32005KT P6SM SCT120
     FM311600 12004KT P6SM SCT150
     FM312000 22006KT P6SM VCTS FEW100CB SCT150=

USA.gov is the U.S. government's official web portal to all federal, state and local government web resources and services.